Dewpoint
-10 -8 -10 3 1 2 -2 2 0 0 3 3 3 3 2 1 -0 -0 -1 -6 -1 -2 -3 -3 -2 -3 0 1 1 1 2 2 1 4 5 6 5 5 7 7 7 5 4 5 7 7 6
-12 -10 -10 -2 0 1 -6 -3 0 -5 2 3 2 2 2 -0 -1 -1 -3 -6 -2 -4 -4 -2 -2 -3 -2 -1 1 0 2 2 -0 2 2 6 5 5 6 6 7 6 4 6 6 7 5
-13 -11 -11 -5 -1 1 -10 -9 -5 -4 1 3 -0 -1 2 -0 -4 -6 -5 -5 -3 -3 -4 -2 -2 -3 -4 -3 -1 2 2 4 4 4 1 5 4 5 5 5 6 6 6 5 4 5 5
-14 -12 -11 -11 -3 1 -7 -12 -6 -2 0 1 -2 -6 -2 -1 -5 -6 -5 -4 -4 -3 -6 -2 -2 -2 -4 -1 -0 -2 -1 1 4 4 4 5 5 5 4 5 6 6 5 7 4 3 4
-13 -12 -11 -11 -10 -1 -4 -17 -6 -5 -3 -1 -4 -7 -5 -3 -4 -4 -5 -5 -4 -4 -4 -2 -0 -1 -2 -1 -1 -2 -2 -1 0 4 5 5 6 4 4 5 6 6 6 7 5 3 3
-13 -13 -12 -11 -11 -7 -5 -19 -12 -11 -5 -4 -3 -5 -5 -5 -3 -2 -2 -1 -1 -0 -0 1 0 -2 -2 -1 -0 -1 -2 -1 0 3 5 7 5 4 4 5 7 7 6 5 5 4 3
-12 -14 -13 -11 -12 -9 -6 -17 -22 -21 -7 -4 -3 -4 -7 -6 -5 -6 -3 -1 -1 -2 -0 2 1 -1 0 1 2 -0 -1 -1 0 4 5 7 6 5 5 3 4 5 4 5 4 2 4
-10 -15 -14 -11 -11 -8 -7 -13 -24 -26 -12 -4 -2 -2 -4 -5 -4 -5 -5 -5 -2 -1 0 2 1 1 0 2 1 1 -0 2 3 6 5 6 6 4 4 3 4 5 5 5 2 1 3
-8 -15 -15 -11 -11 -7 -6 -10 -20 -25 -20 -5 -2 -2 -2 -4 -4 -3 -4 -3 -1 1 1 3 3 2 1 2 1 2 2 3 3 5 5 6 5 4 5 5 5 5 5 4 3 1 1
-7 -15 -15 -11 -11 -7 -5 -6 -11 -23 -24 -5 -2 -1 -1 -2 -2 -1 -1 -2 -2 -1 2 3 3 1 2 2 3 2 3 4 4 4 4 5 4 5 5 6 5 6 3 3 2 3 5
-7 -14 -15 -11 -11 -8 -6 -5 -7 -15 -23 -8 -2 -0 -1 -0 -0 1 2 2 -0 1 1 3 3 4 3 3 2 3 4 4 4 4 4 5 5 5 6 5 4 5 5 3 3 3 3
-6 -13 -14 -11 -10 -9 -6 -5 -6 -10 -18 -10 -2 -0 0 1 1 2 2 2 1 -2 1 4 4 4 5 4 4 3 4 4 4 4 4 5 3 4 5 5 4 5 3 3 4 4 4
-3 -12 -13 -10 -9 -8 -6 -5 -6 -10 -13 -15 -2 -1 1 2 2 3 2 2 -2 1 -1 2 5 4 4 4 4 3 4 5 5 6 6 5 5 4 3 4 3 4 5 8 7 7 6
-2 -11 -12 -9 -8 -7 -5 -5 -6 -11 -11 -16 -2 -1 0 1 3 3 2 -2 1 0 1 1 3 4 6 4 4 5 5 6 4 3 5 5 7 5 4 3 4 5 3 5 6 6 4
-1 -9 -10 -7 -7 -6 -4 -5 -6 -9 -10 -11 -1 1 1 2 3 4 2 -0 -1 -2 -1 3 2 4 6 5 5 5 5 5 4 2 3 3 5 3 4 4 3 5 7 2 1 -0 1
-1 -8 -8 -6 -6 -5 -3 -4 -5 -7 -10 -8 0 1 3 4 4 3 -1 1 2 0 1 3 4 1 3 6 6 6 5 3 4 3 1 2 4 3 4 4 4 4 4 6 3 5 4
-2 -6 -7 -4 -5 -4 -3 -3 -4 -6 -9 -4 2 2 3 4 4 0 1 -1 3 2 2 2 2 2 0 2 5 4 4 2 2 3 2 2 2 4 4 6 5 6 7 6 5 1 3
-2 -4 -4 -3 -4 -4 -3 -3 -4 -4 -8 -4 -2 0 2 3 2 0 -1 1 2 2 1 1 1 1 1 -0 1 2 2 1 0 2 4 2 2 4 4 4 3 3 4 5 4 4 -0
-1 -3 -3 -2 -2 -3 -3 -3 -5 -6 -7 -6 -1 2 1 2 0 0 1 3 2 2 0 -1 0 -0 -1 1 1 1 2 0 -0 0 1 1 4 6 5 4 4 5 4 5 4 -0 -1
-0 -2 -1 -1 -1 -3 -3 -3 -5 -6 -7 -7 -2 -4 -5 -0 0 1 2 2 2 2 1 0 -1 -1 -0 0 -1 0 2 0 -0 -0 -1 1 1 2 3 2 3 6 5 5 6 3 2
1 -0 -1 -0 -2 -3 -2 -4 -4 -5 -6 -9 -8 -1 -3 -4 -5 -0 1 1 3 2 1 -0 0 -0 1 2 0 1 1 1 0 -1 -1 -1 2 1 -0 -1 1 2 2 4 5 5 4
1 -0 0 -1 -2 -3 -3 -3 -4 -6 -8 -8 -8 -6 -4 -3 -2 -1 -0 1 2 1 2 1 1 0 2 1 -0 -0 1 1 1 -0 -0 -0 0 -1 -1 -0 1 2 1 2 4 4 5
1 0 -1 -2 -2 -3 -5 -3 -3 -5 -7 -6 -8 -6 -2 -5 -3 -3 -1 -5 -3 -1 -0 1 2 3 3 1 -0 -0 -1 -1 -1 0 0 1 0 -1 0 1 -0 1 1 1 1 1 2
2 1 1 -1 -2 -2 -3 -1 -1 -3 -5 -5 -5 -7 -6 -7 -4 -6 -4 -5 -3 -1 -2 -5 -6 -1 2 1 -0 -0 -1 -1 -1 -1 -1 1 -1 -1 0 0 2 -1 -3 -1 -1 -1 0
3 2 2 -0 -2 -1 -2 -4 -3 -3 -3 -4 -4 -5 -7 -6 -6 -6 -5 -6 -6 -5 -4 -4 -3 -2 -0 1 2 1 2 1 0 -1 -1 -1 1 2 2 2 -0 -2 -1 0 0 0 -2
3 1 0 -1 -5 -4 -3 -5 -2 -2 -3 -4 -4 -4 -4 -4 -5 -5 -5 -4 -2 -2 -2 -1 -4 -3 3 3 4 4 4 2 3 2 -1 -0 -0 1 1 3 3 -3 -0 -2 -1 2 0
4 2 -1 -3 -9 -12 -5 -5 -1 -1 -2 -3 -3 -4 -3 -3 -4 -5 -4 -4 -5 -4 -4 -4 -3 -7 3 4 5 4 3 1 3 3 3 3 3 3 2 3 1 -3 -3 -1 3 1 2
3 2 1 -11 -15 -11 -8 -7 -1 -0 -1 -2 -2 -3 -2 -2 -3 -2 -3 -4 -5 -5 -4 -5 -5 -2 2 4 4 5 3 1 1 1 2 3 4 4 3 4 3 -2 0 2 0 2 2
0 2 -2 -18 -13 -12 -11 -5 -2 -2 -1 -2 -3 -2 -2 -1 -2 -2 -2 -2 -2 -3 -2 -3 -5 -3 -1 -0 -0 0 4 0 -0 2 -1 2 1 2 1 1 -3 -2 0 -1 -0 2 2
Wind_Speed
16 18 20 17 20 18 20 17 18 17 19 21 23 25 25 20 13 9 8 3 3 2 2 1 2 1 6 5 3 3 5 9 15 18 20 12 16 10 4 5 6 1 7 15 10 4 9
16 18 20 19 19 20 21 19 17 17 17 20 21 22 21 16 12 10 10 5 3 3 2 3 3 3 3 2 1 8 8 3 15 25 22 17 13 13 9 6 8 8 4 16 20 16 11
15 17 19 19 20 20 22 21 18 17 17 18 18 19 18 12 10 10 10 7 4 1 2 2 3 3 3 4 2 8 6 6 17 19 24 21 9 11 6 5 9 2 5 6 15 17 6
14 16 18 20 20 20 21 21 18 16 17 16 14 14 13 10 8 8 7 6 5 2 2 3 5 2 1 7 8 1 2 2 9 12 21 22 8 15 2 7 7 4 3 5 9 14 6
13 15 17 19 21 21 20 20 19 17 17 15 11 10 10 9 6 7 7 5 4 3 3 4 6 4 2 4 7 4 6 1 5 8 16 19 14 8 2 5 3 4 5 6 7 16 7
13 14 16 18 21 23 20 20 20 18 18 15 11 7 7 7 4 3 4 5 6 6 5 4 8 3 6 8 6 4 4 6 9 9 12 13 8 4 2 3 12 4 2 4 5 9 9
12 13 15 18 21 23 21 20 21 20 18 17 12 6 3 4 5 3 2 2 0 2 6 5 10 4 9 6 4 4 5 6 8 4 2 2 3 13 6 4 4 6 2 4 2 4 5
11 12 14 17 20 22 22 19 20 21 19 19 13 8 3 2 2 5 5 3 5 3 2 7 4 4 5 4 3 5 5 3 4 3 4 1 7 6 8 7 5 6 6 2 2 2 3
11 11 13 16 18 21 22 19 19 20 19 18 13 9 5 5 3 1 3 3 4 3 1 3 4 4 3 4 3 3 4 4 6 4 2 4 7 11 7 4 5 3 4 3 2 2 2
10 11 12 15 17 20 22 21 20 19 20 16 11 9 6 4 3 3 1 0 1 2 2 6 1 1 1 3 4 5 5 3 4 2 6 1 8 11 8 5 4 3 2 2 2 2 3
9 10 11 14 16 19 22 22 20 18 19 15 8 9 8 4 2 2 4 3 5 1 5 7 2 2 2 2 10 3 6 4 5 6 2 3 9 11 8 5 6 5 1 6 4 1 2
9 9 10 13 16 18 21 23 21 19 18 13 5 8 7 6 3 2 1 2 3 5 3 3 3 1 3 3 2 4 2 7 7 4 2 3 4 3 3 3 2 2 5 6 4 3 2
8 8 9 12 15 17 20 22 20 19 17 12 4 6 8 8 4 3 0 1 4 6 1 4 2 0 0 3 4 1 1 3 4 2 2 3 2 1 2 5 4 3 6 2 1 1 5
7 7 8 10 13 16 20 22 20 19 17 11 1 5 8 7 5 1 1 4 9 3 3 4 2 2 2 2 2 5 6 3 4 4 2 3 4 4 0 2 5 3 6 4 5 4 4
7 6 6 9 11 14 19 22 22 20 20 9 5 9 10 9 5 3 1 6 5 5 3 4 5 3 2 1 3 1 1 4 5 5 4 4 1 2 1 1 2 4 3 4 5 3 3
6 4 5 7 10 14 17 21 22 22 21 6 5 3 14 11 5 3 4 2 1 4 2 1 2 2 2 3 1 2 3 4 3 6 2 5 4 2 4 1 1 1 4 2 2 1 4
7 4 4 6 9 12 15 20 23 23 21 4 6 3 11 10 6 2 3 4 4 4 5 2 2 3 3 4 5 5 6 2 5 6 3 5 3 3 4 6 7 4 4 2 1 4 5
8 5 4 5 8 10 14 18 22 23 20 3 3 3 8 8 3 2 1 4 2 3 3 3 2 3 3 1 3 6 7 3 8 11 6 4 3 4 5 1 4 6 7 7 4 5 2
9 6 3 3 6 8 11 16 20 21 20 8 3 1 5 6 2 3 5 4 3 3 3 1 2 2 1 3 2 4 4 4 8 7 6 5 1 3 1 3 4 7 9 8 2 1 6
10 7 3 2 5 5 8 12 16 17 16 7 2 2 1 3 3 1 4 4 3 4 4 4 3 2 1 2 3 3 3 4 6 7 8 14 4 5 6 3 4 5 10 17 12 4 3
12 8 5 3 5 4 8 11 15 14 12 6 4 2 1 2 3 4 3 3 3 3 4 2 2 3 1 2 2 3 3 1 4 7 6 5 5 4 5 6 5 5 7 16 21 18 8
14 10 7 4 4 4 8 10 13 12 10 9 4 4 2 3 4 3 2 1 3 4 3 3 4 5 2 5 5 4 5 3 5 2 6 1 2 3 3 4 6 5 7 10 17 15 14
16 12 9 5 3 4 8 10 11 11 11 7 7 4 2 2 2 1 2 1 4 9 9 11 7 6 4 7 7 5 6 6 4 7 6 6 5 3 4 3 2 6 15 14 7 9 11
18 14 11 8 5 3 7 10 12 13 12 11 8 5 3 3 1 3 0 3 6 5 5 16 21 5 6 7 10 8 6 9 7 7 7 6 6 3 2 2 2 7 3 7 16 16 13
21 16 13 12 8 3 4 7 10 11 10 10 8 4 1 3 4 6 3 5 13 15 7 12 21 17 20 15 3 3 1 2 5 7 7 4 5 3 3 3 7 6 2 5 6 6 15
21 16 16 14 9 5 2 4 6 8 9 8 6 6 4 2 3 5 4 4 3 4 6 7 16 15 6 3 4 6 5 5 4 2 2 3 2 4 3 2 5 4 3 4 3 5 4
22 17 16 14 8 5 4 5 4 6 7 8 7 6 5 4 3 4 4 2 5 3 3 9 11 10 6 4 4 4 5 6 5 7 5 3 2 7 5 3 7 7 6 6 2 5 7
24 19 17 14 9 4 5 6 6 8 7 6 8 7 6 5 17 7 8 9 10 4 2 10 12 1 4 3 2 3 3 6 4 5 7 6 7 4 3 4 8 5 4 5 4 3 6
21 20 19 13 8 8 7 5 6 7 8 11 11 10 9 12 18 27 28 23 27 29 17 6 10 7 4 3 5 3 3 2 6 4 1 3 6 5 7 6 4 5 7 4 8 4 3
Wind_Direction
0 5 8 6 4 358 2 356 359 0 357 360 357 355 5 8 12 7 359 23 54 44 21 23 18 136 158 189 250 197 37 227 212 206 203 180 187 190 164 179 161 84 166 199 157 223 258
359 4 7 5 4 358 3 2 359 3 1 359 0 4 14 23 30 25 9 20 356 0 66 84 70 102 148 82 92 213 27 264 202 199 201 189 196 181 156 171 177 186 147 141 155 194 188
358 2 5 2 4 359 3 3 1 360 359 2 2 10 16 35 47 39 28 15 334 281 92 93 71 100 101 83 25 80 44 163 166 195 203 194 191 188 154 124 190 174 105 139 173 174 179
354 359 3 1 1 360 2 4 -0 1 358 360 5 11 22 37 37 34 31 38 29 9 41 80 48 26 32 51 69 147 125 1 137 180 202 191 182 188 167 127 113 113 101 149 201 159 178
349 357 0 1 359 359 1 4 0 2 360 356 1 7 17 29 59 30 24 49 58 41 67 75 35 31 56 62 34 55 127 147 166 146 182 195 191 197 171 117 107 237 180 169 161 188 154
344 355 358 360 358 360 360 4 0 6 359 358 354 359 4 18 17 45 62 78 80 57 19 12 21 344 23 341 338 66 133 110 191 166 162 172 168 132 60 161 192 138 70 135 180 186 195
340 349 354 359 -0 1 0 4 2 5 359 357 353 335 343 9 28 3 130 234 242 5 22 20 343 324 332 46 82 103 123 122 175 143 156 160 141 187 154 145 138 123 109 136 207 160 166
333 344 352 358 1 2 -0 4 3 3 0 359 358 337 317 298 12 36 63 119 78 60 40 33 13 25 2 33 81 77 116 101 167 113 123 165 186 161 146 133 134 145 174 230 280 154 160
326 339 350 357 1 1 1 2 360 0 3 357 3 352 328 275 262 342 67 96 86 53 81 338 16 5 29 75 70 79 98 100 76 133 320 168 148 143 139 149 112 90 161 187 151 24 97
319 335 349 355 358 360 2 1 357 358 359 358 359 2 345 312 259 294 240 286 266 289 72 9 42 351 67 83 51 105 79 78 82 149 355 67 153 141 147 172 117 111 213 210 243 113 217
314 332 346 352 356 358 360 360 355 354 354 357 2 1 349 332 295 300 317 267 228 153 57 323 334 332 165 28 140 64 61 49 109 123 160 254 158 144 160 174 151 184 165 170 192 198 135
309 327 341 350 355 355 357 356 355 352 354 354 17 12 5 2 350 355 351 343 157 45 25 359 300 326 155 174 91 104 55 39 91 44 43 28 53 54 136 82 95 117 88 43 54 75 294
304 318 337 354 353 352 356 355 358 354 353 353 17 33 14 12 14 56 153 180 34 72 345 322 42 357 22 129 115 75 125 159 128 184 177 68 35 33 117 89 28 97 91 145 184 211 232
292 309 338 353 355 350 352 357 2 354 354 352 72 38 19 1 355 51 119 52 63 250 258 295 228 216 81 145 89 146 171 160 220 170 128 138 165 173 147 142 162 137 159 165 197 196 225
277 304 332 349 349 350 353 359 5 360 354 1 125 53 26 4 350 345 100 49 187 201 237 315 320 189 118 240 122 293 151 189 216 201 139 132 57 121 91 80 102 176 164 144 95 36 43
263 286 320 338 347 350 359 360 1 3 0 21 142 117 20 7 3 354 81 149 169 194 220 241 332 299 132 155 99 159 174 208 225 184 187 198 102 199 122 97 37 154 156 115 33 188 243
248 257 293 326 344 349 1 0 357 6 5 61 137 106 7 4 351 354 102 215 257 247 207 214 287 298 320 173 188 199 201 227 181 168 137 147 109 142 113 211 183 150 174 167 133 182 203
231 229 269 325 337 345 359 357 359 360 9 46 97 53 3 2 27 28 124 199 243 263 170 251 222 239 265 280 178 211 203 238 185 149 159 194 126 175 196 214 207 228 192 197 176 216 237
220 218 253 316 327 339 356 356 360 360 3 21 73 85 6 6 75 318 297 264 219 224 200 202 252 213 284 276 268 195 188 191 163 161 161 167 195 136 121 345 244 221 210 204 169 23 209
212 209 223 282 301 343 358 2 1 4 6 29 80 38 22 57 62 286 352 305 310 259 247 217 235 237 287 269 244 254 208 199 182 176 172 167 174 187 197 198 135 208 208 209 207 192 194
206 201 215 243 276 344 2 6 4 6 11 18 36 56 28 314 344 350 311 287 304 289 241 207 308 210 124 263 283 239 241 235 213 172 144 154 208 186 247 231 188 209 209 207 221 228 219
201 193 201 231 267 347 359 12 6 12 18 44 35 6 333 280 309 316 329 2 289 310 260 234 186 282 236 221 214 244 187 212 211 212 153 111 212 108 292 256 233 259 242 214 217 228 245
201 195 198 220 270 355 358 12 5 13 27 52 30 5 317 281 349 323 237 263 289 350 289 261 33 346 288 250 256 245 228 260 248 165 181 149 137 110 257 345 343 304 241 220 214 211 211
205 199 203 226 252 332 355 8 3 19 34 49 33 5 356 284 246 223 203 303 275 268 282 296 307 260 259 305 298 266 252 251 207 225 167 148 132 126 199 47 283 237 203 212 224 238 217
212 207 210 225 237 276 358 356 5 23 36 48 33 21 335 280 260 297 270 257 290 293 270 265 274 275 267 289 266 231 250 245 237 208 190 169 138 146 166 204 290 287 192 176 178 266 217
211 204 212 222 232 241 292 335 357 11 32 40 28 7 358 329 246 267 272 299 315 309 307 281 309 312 260 166 204 191 199 190 215 167 124 152 162 146 145 194 244 246 308 180 166 294 295
212 206 216 222 233 213 241 293 322 350 6 11 3 353 347 286 294 267 256 303 294 271 264 303 333 318 246 189 234 171 211 179 180 174 174 156 188 196 200 227 276 244 246 152 109 251 327
214 213 226 221 223 243 260 274 296 321 332 340 333 316 320 277 291 273 275 272 260 236 212 312 328 181 283 238 206 187 181 204 158 192 175 160 178 177 156 210 262 191 112 170 223 302 325
211 210 218 215 222 241 263 290 289 300 310 322 335 313 304 255 278 289 289 280 264 261 269 231 259 326 299 317 24 330 244 168 155 212 123 183 186 181 180 208 220 211 223 251 278 275 327
Height
1544 1541 1538 1535 1530 1527 1522 1519 1515 1511 1509 1506 1502 1496 1491 1487 1484 1483 1482 1480 1478 1477 1477 1478 1477 1477 1478 1479 1481 1480 1478 1479 1481 1486 1489 1493 1497 1501 1502 1502 1506 1508 1508 1512 1517 1523 1527
1544 1541 1538 1534 1530 1526 1521 1517 1514 1510 1507 1505 1501 1496 1492 1488 1486 1484 1484 1482 1482 1480 1479 1479 1478 1479 1480 1481 1480 1479 1478 1478 1479 1483 1487 1494 1497 1501 1502 1502 1505 1508 1509 1512 1517 1524 1526
1544 1541 1538 1533 1529 1525 1521 1516 1512 1509 1506 1504 1500 1497 1492 1488 1486 1485 1484 1483 1483 1482 1481 1480 1479 1480 1480 1482 1480 1480 1480 1478 1477 1481 1486 1493 1497 1501 1499 1502 1505 1507 1512 1513 1516 1523 1527
1544 1541 1537 1533 1529 1524 1520 1515 1511 1508 1505 1503 1499 1496 1493 1491 1489 1488 1485 1484 1484 1484 1483 1481 1480 1481 1481 1481 1480 1480 1480 1479 1478 1482 1488 1492 1498 1500 1500 1503 1506 1512 1514 1520 1516 1515 1523
1543 1540 1536 1532 1528 1524 1519 1515 1510 1507 1503 1500 1498 1496 1493 1491 1489 1489 1487 1486 1484 1484 1484 1483 1483 1482 1482 1482 1481 1480 1481 1481 1484 1486 1488 1494 1499 1500 1501 1506 1512 1511 1517 1516 1515 1511 1514
1542 1540 1536 1532 1528 1523 1519 1515 1510 1506 1502 1499 1497 1495 1494 1492 1490 1488 1488 1487 1486 1486 1485 1484 1483 1486 1484 1483 1481 1481 1481 1482 1486 1488 1489 1492 1497 1501 1503 1505 1506 1515 1515 1513 1512 1510 1512
1541 1539 1535 1531 1527 1523 1518 1515 1510 1506 1502 1499 1495 1493 1492 1492 1490 1488 1487 1488 1489 1488 1486 1488 1487 1487 1486 1484 1482 1482 1483 1485 1487 1487 1490 1488 1495 1497 1503 1503 1505 1511 1513 1512 1511 1510 1515
1540 1538 1535 1531 1527 1523 1517 1514 1509 1505 1502 1498 1495 1493 1491 1490 1490 1488 1487 1486 1488 1490 1488 1486 1486 1486 1486 1484 1485 1485 1486 1487 1487 1489 1494 1495 1495 1498 1501 1503 1506 1510 1515 1515 1511 1510 1513
1538 1536 1533 1530 1526 1522 1517 1513 1509 1505 1501 1497 1494 1492 1490 1488 1489 1489 1487 1487 1487 1488 1490 1488 1487 1486 1487 1487 1486 1487 1488 1488 1490 1493 1496 1496 1492 1496 1500 1504 1509 1513 1516 1518 1515 1512 1514
1536 1535 1532 1529 1526 1522 1517 1513 1508 1504 1500 1496 1493 1491 1489 1488 1490 1487 1487 1487 1487 1488 1491 1492 1488 1488 1488 1487 1489 1489 1490 1491 1494 1497 1492 1490 1493 1496 1502 1505 1510 1515 1512 1511 1512 1518 1526
1535 1533 1530 1528 1524 1521 1517 1512 1507 1503 1499 1495 1492 1491 1488 1486 1486 1486 1487 1485 1485 1487 1499 1492 1489 1488 1487 1489 1491 1492 1492 1491 1493 1497 1502 1501 1495 1499 1504 1505 1508 1515 1513 1515 1516 1519 1521
1533 1531 1528 1526 1523 1520 1516 1511 1506 1501 1497 1494 1492 1490 1488 1487 1485 1486 1486 1485 1486 1495 1499 1491 1489 1487 1486 1489 1490 1492 1493 1494 1497 1501 1499 1499 1499 1502 1505 1507 1507 1509 1512 1516 1521 1525 1537
1531 1529 1527 1525 1522 1518 1515 1510 1505 1500 1495 1493 1491 1489 1488 1487 1486 1485 1485 1487 1496 1500 1494 1494 1489 1488 1485 1485 1490 1491 1493 1494 1496 1504 1499 1502 1505 1505 1504 1508 1509 1510 1517 1523 1530 1528 1529
1529 1527 1525 1523 1521 1517 1513 1509 1504 1499 1494 1491 1490 1489 1488 1486 1485 1483 1485 1488 1501 1497 1499 1491 1488 1486 1487 1484 1489 1492 1492 1494 1497 1498 1500 1502 1503 1506 1505 1506 1507 1511 1515 1525 1521 1527 1527
1526 1525 1523 1521 1519 1516 1512 1508 1504 1498 1493 1489 1489 1490 1488 1486 1485 1485 1486 1499 1505 1504 1497 1492 1487 1485 1487 1485 1485 1487 1490 1493 1491 1492 1496 1504 1506 1505 1505 1506 1508 1514 1515 1518 1528 1536 1545
1523 1523 1521 1519 1517 1515 1512 1508 1503 1498 1492 1489 1489 1489 1488 1486 1485 1484 1485 1498 1495 1490 1490 1491 1490 1483 1483 1488 1486 1488 1490 1488 1487 1488 1489 1496 1508 1504 1506 1508 1510 1509 1511 1519 1535 1532 1533
1521 1520 1519 1517 1516 1514 1511 1507 1502 1498 1492 1489 1490 1490 1490 1488 1486 1484 1496 1499 1489 1485 1487 1489 1489 1488 1483 1485 1485 1490 1485 1483 1485 1489 1490 1494 1500 1507 1507 1505 1502 1509 1508 1513 1517 1523 1518
1519 1517 1516 1515 1514 1512 1509 1506 1503 1497 1493 1490 1490 1491 1491 1488 1487 1488 1494 1487 1485 1483 1483 1485 1486 1486 1484 1482 1482 1485 1483 1479 1479 1484 1489 1490 1499 1503 1501 1500 1501 1502 1501 1506 1519 1510 1523
1516 1515 1514 1513 1512 1511 1508 1506 1502 1497 1494 1491 1490 1490 1491 1489 1498 1495 1486 1483 1482 1482 1480 1481 1483 1481 1480 1482 1482 1479 1479 1477 1477 1480 1484 1487 1499 1500 1503 1506 1500 1498 1496 1499 1508 1515 1522
1513 1513 1513 1512 1511 1509 1507 1506 1502 1498 1495 1492 1493 1495 1493 1492 1493 1493 1492 1489 1485 1481 1479 1478 1478 1479 1479 1480 1479 1478 1478 1478 1477 1477 1480 1484 1491 1490 1490 1487 1491 1494 1492 1493 1497 1508 1500
1510 1511 1511 1510 1510 1508 1507 1505 1502 1499 1496 1495 1495 1498 1497 1500 1496 1498 1496 1490 1485 1480 1479 1478 1478 1478 1481 1482 1478 1479 1478 1477 1477 1476 1477 1480 1487 1490 1487 1487 1489 1488 1488 1489 1488 1483 1486
1507 1507 1508 1508 1509 1506 1505 1504 1502 1499 1496 1497 1499 1501 1500 1497 1496 1496 1494 1492 1487 1483 1479 1473 1476 1477 1479 1481 1475 1476 1477 1478 1475 1476 1476 1479 1492 1494 1498 1483 1484 1485 1481 1481 1479 1478 1477
1505 1505 1505 1507 1507 1505 1505 1503 1502 1500 1498 1497 1501 1501 1501 1497 1497 1496 1493 1492 1488 1492 1483 1479 1476 1477 1475 1474 1471 1470 1471 1471 1470 1472 1477 1479 1488 1498 1497 1485 1484 1489 1468 1468 1467 1466 1464
1502 1502 1503 1505 1505 1504 1504 1503 1502 1500 1498 1498 1500 1501 1501 1499 1497 1494 1492 1493 1490 1487 1486 1476 1475 1475 1470 1469 1469 1468 1467 1468 1469 1469 1469 1479 1483 1493 1499 1491 1501 1463 1455 1457 1457 1453 1458
1499 1499 1500 1502 1502 1502 1503 1502 1502 1501 1499 1497 1498 1499 1499 1499 1496 1493 1491 1489 1485 1484 1481 1477 1471 1469 1467 1468 1470 1467 1468 1467 1465 1465 1468 1468 1476 1487 1491 1493 1475 1452 1453 1455 1456 1449 1445
1494 1495 1496 1498 1499 1499 1501 1501 1501 1500 1499 1497 1498 1498 1499 1499 1494 1492 1488 1488 1489 1486 1480 1474 1468 1466 1464 1463 1466 1465 1469 1466 1467 1464 1464 1467 1467 1473 1492 1488 1477 1456 1448 1448 1449 1455 1440
1489 1491 1494 1495 1496 1497 1499 1499 1499 1499 1499 1498 1498 1499 1498 1496 1491 1492 1491 1491 1489 1485 1484 1479 1474 1466 1462 1457 1457 1457 1460 1456 1462 1463 1467 1467 1468 1468 1474 1472 1466 1450 1447 1447 1454 1452 1438
1484 1487 1491 1492 1493 1495 1496 1497 1497 1497 1497 1497 1498 1498 1498 1496 1490 1489 1489 1487 1485 1484 1483 1478 1477 1467 1463 1454 1452 1446 1451 1450 1455 1453 1457 1460 1461 1464 1469 1470 1467 1444 1446 1450 1444 1439 1438
1479 1483 1487 1488 1490 1492 1494 1494 1495 1495 1495 1494 1495 1495 1495 1493 1487 1484 1479 1478 1477 1478 1482 1480 1478 1475 1471 1465 1462 1461 1447 1446 1448 1454 1449 1453 1449 1456 1455 1452 1440 1440 1439 1440 1439 1439 1439